Hermiston, OR

12:04 PM PST on November 18, 2017 (GMT -0800)
Hermiston Municipal

Weather History for KHRI - November, 2011

Change the Weather History Date:

Saturday, November 12, 2011

  Actual Average Record
Temperature  
Mean Temperature 44 °F 42 °F  
Max Temperature 50 °F 52 °F 69 °F (1989)
Min Temperature 37 °F 32 °F 8 °F (2014)
Degree Days  
Heating Degree Days 22    
Moisture  
Dew Point 33 °F    
Average Humidity 66    
Maximum Humidity 82    
Minimum Humidity 50    
Precipitation  
Precipitation 0.01 in 0.04 in 0.47 in (1989)
Month to date precipitation 0.46  
Year to date precipitation 8.37  
Sea Level Pressure  
Sea Level Pressure 29.76 in    
Wind  
Wind Speed 13 mph (SW)    
Max Wind Speed 21 mph    
Max Gust Speed 30 mph    
Visibility 10 miles    
Events Rain    
T = Trace of Precipitation, MM = Missing Value Source: NWS Daily Summary

Daily Weather History Graph

Daily Weather History Graph

Search for Another Location

Airport or City:

Trip Planner

Search our weather history database for the weather conditions in past years. The results will help you decide how hot, cold, wet, or windy it might be!

Date:

Astronomy

Nov. 12, 2011 Rise Set
Actual Time 6:52 AM PST 4:29 PM PST
Civil Twilight 6:20 AM PST 5:01 PM PST
Nautical Twilight 5:44 AM PST 5:37 PM PST
Astronomical Twilight 5:09 AM PST 6:12 PM PST
Moon 5:43 PM PST (11/12) 8:45 AM PST (11/12)
Length of Visible Light 10h 40m
Length of Day
9h 36m
Waning Gibbous, 96% of the Moon is Illuminated
Nov 12
Waning Gibbous
Nov 18
Last Quarter
Nov 24
New
Dec 2
First Quarter
Dec 10
Full

Hourly Weather History & Observations

Time (PST) Temp. Windchill Dew Point Humidity Pressure Visibility Wind Dir Wind Speed Gust Speed Precip Events Conditions
12:53 AM 41.0 °F 33.1 °F 30.9 °F 67% 29.67 in 10.0 mi WSW 15.0 mph - N/A   Partly Cloudy
1:53 AM 39.9 °F 32.1 °F 30.9 °F 70% 29.69 in 10.0 mi SW 13.8 mph - N/A   Clear
2:53 AM 39.0 °F 31.4 °F 30.9 °F 73% 29.71 in 10.0 mi SW 12.7 mph - N/A   Clear
3:53 AM 39.9 °F 32.1 °F 32.0 °F 73% 29.73 in 10.0 mi WSW 13.8 mph 23.0 mph N/A   Clear
4:53 AM 37.9 °F 30.5 °F 30.0 °F 73% 29.76 in 10.0 mi SW 11.5 mph - N/A   Clear
5:53 AM 37.9 °F 30.0 °F 30.9 °F 76% 29.80 in 10.0 mi WSW 12.7 mph - N/A   Clear
6:53 AM 37.0 °F 29.8 °F 30.9 °F 79% 29.83 in 10.0 mi SW 10.4 mph - N/A   Clear
7:53 AM 37.9 °F 32.7 °F 30.9 °F 76% 29.86 in 10.0 mi SSW 6.9 mph - N/A   Clear
8:53 AM 43.0 °F 37.7 °F 32.0 °F 65% 29.87 in 10.0 mi SW 9.2 mph - N/A   Clear
9:53 AM 46.0 °F 39.3 °F 32.0 °F 58% 29.87 in 10.0 mi WSW 16.1 mph 23.0 mph N/A   Clear
10:53 AM 48.9 °F - 30.9 °F 50% 29.86 in 10.0 mi SW 20.7 mph 28.8 mph N/A   Clear
11:53 AM 48.9 °F - 32.0 °F 52% 29.84 in 10.0 mi WSW 17.3 mph 29.9 mph N/A   Partly Cloudy
12:53 PM 50.0 °F - 32.0 °F 50% 29.82 in 10.0 mi WSW 17.3 mph 27.6 mph N/A   Mostly Cloudy
1:53 PM 48.9 °F - 33.1 °F 54% 29.80 in 10.0 mi WSW 18.4 mph 28.8 mph N/A   Overcast
2:53 PM 48.9 °F - 33.1 °F 54% 29.78 in 10.0 mi WSW 17.3 mph 24.2 mph N/A   Overcast
3:53 PM 48.0 °F - 34.0 °F 58% 29.78 in 10.0 mi WSW 9.2 mph - N/A   Overcast
4:53 PM 46.9 °F - 34.0 °F 61% 29.76 in 10.0 mi SW 8.1 mph - N/A   Overcast
5:53 PM 46.0 °F 42.5 °F 36.0 °F 68% 29.78 in 10.0 mi SW 6.9 mph - 0.00 in Rain Light Rain
6:53 PM 44.1 °F 38.6 °F 37.0 °F 76% 29.74 in 10.0 mi South 10.4 mph - 0.01 in   Overcast
7:53 PM 43.0 °F 37.7 °F 37.9 °F 82% 29.73 in 10.0 mi SSE 9.2 mph - N/A   Overcast
8:53 PM 44.1 °F 40.8 °F 37.0 °F 76% 29.72 in 10.0 mi South 5.8 mph - N/A   Overcast
9:53 PM 46.9 °F - 35.1 °F 63% 29.68 in 10.0 mi SW 13.8 mph - N/A   Overcast
10:53 PM 46.9 °F - 35.1 °F 63% 29.64 in 10.0 mi SW 13.8 mph - N/A   Partly Cloudy
11:53 PM 50.0 °F - 35.1 °F 57% 29.63 in 10.0 mi SW 9.2 mph - N/A   Overcast